Location: Nashville
(36.1660°N, 86.7840°W)
Time: 23:38:28
(UTC-05:00)

Vanguard 2 - Pass Details

Date: 27 June 2022
Orbit: 552 x 2934 km, 32.9° (Epoch: 10 August)

Event Time Altitude Azimuth Distance (km) Brightness Sun altitude
Rises 22:16:08 0° 261° (W) 3,703 11.4 -20.3°
Reaches altitude 10° 22:19:15 10° 258° (WSW) 2,452 10.4 -20.7°
Maximum altitude 22:24:33 58° 180° (S) 747 7.1 -21.3°
Enters shadow 22:24:48 57° 164° (SSE) 747 7.1 -21.3°
